Location: Usti nad Labem
(50.6670°N, 14.0330°E)
Time: 03:54:56
(UTC+02:00)

ISS - Visible Passes

Search period start: 28 May 2015 00:00
Search period end: 07 June 2015 00:00
Orbit: 399 x 404 km, 51.6° (Epoch: 27 May)

Date Brightness Start Highest point End Pass type
(mag) Time Alt. Az. Time Alt. Az. Time Alt. Az.
28 May -3.5 01:24:44 63° SSW 01:25:00 67° SSE 01:28:15 10° ENE visible
28 May -3.1 02:58:10 10° W 03:01:27 72° N 03:04:43 10° E visible
29 May -2.5 00:32:42 35° ESE 00:32:42 35° ESE 00:34:58 10° E visible
29 May -3.2 02:05:13 12° W 02:08:10 75° N 02:11:26 10° E visible
29 May -3.4 03:41:24 10° WNW 03:44:40 88° SSW 03:47:57 10° ESE visible
29 May -1.7 23:40:14 20° ESE 23:40:14 20° ESE 23:41:36 10° E visible
30 May -3.4 01:12:42 19° WSW 01:14:54 87° N 01:18:10 10° ENE visible
30 May -3.2 02:48:07 10° W 02:51:24 78° N 02:54:41 10° E visible
30 May -2.0 22:45:45 20° SE 22:45:45 20° SE 22:48:03 10° E visible
31 May -3.5 00:18:23 10° WSW 00:21:38 73° SSE 00:24:54 10° ENE visible
31 May -3.1 01:54:51 10° W 01:58:06 72° N 02:01:22 10° E visible
31 May -3.4 03:31:18 10° WNW 03:34:32 62° SSW 03:37:46 10° ESE visible
31 May -1.4 21:51:10 10° SSE 21:52:32 12° SE 21:54:01 10° ESE visible
31 May -3.3 23:25:15 10° SW 23:28:25 51° SSE 23:31:36 10° E visible
01 Jun -3.2 01:01:32 10° W 01:04:48 74° N 01:08:04 10° E visible
01 Jun -3.5 02:38:02 10° WNW 02:41:17 83° SSW 02:44:34 10° ESE visible
01 Jun -2.7 22:32:15 10° SW 22:35:14 34° SSE 22:38:14 10° E visible
02 Jun -3.4 00:08:13 10° W 00:11:29 84° N 00:14:45 10° ENE visible
02 Jun -3.3 01:44:43 10° W 01:48:00 80° N 01:51:16 10° E visible
02 Jun -2.9 03:21:13 10° W 03:24:17 38° SSW 03:27:20 10° SE visible
02 Jun -3.5 23:14:56 10° WSW 23:18:11 78° SSE 23:21:27 10° ENE visible
03 Jun -3.2 00:51:25 10° W 00:54:40 73° N 00:57:56 10° E visible
03 Jun -3.3 02:27:52 10° WNW 02:31:05 56° SSW 02:34:17 10° SE visible
03 Jun -1.6 04:05:09 10° WSW 04:07:00 14° SW 04:08:47 10° S visible
03 Jun -3.3 22:21:44 10° SW 22:24:56 56° SSE 22:28:08 10° ENE visible
03 Jun -3.1 23:58:05 10° W 00:01:19 73° N 00:04:35 10° E visible
04 Jun -3.5 01:34:33 10° WNW 01:37:48 78° SSW 01:41:04 10° ESE visible
04 Jun -2.1 03:11:16 10° W 03:13:54 22° SW 03:16:30 10° SSE visible
04 Jun -3.3 23:04:43 10° W 23:07:59 81° N 23:11:15 10° ENE visible
05 Jun -3.4 00:41:14 10° WNW 00:44:29 83° N 00:47:46 10° E visible
05 Jun -2.7 02:17:44 10° W 02:20:42 34° SSW 02:20:42 34° SSW visible
05 Jun -3.4 22:11:23 10° WSW 22:14:38 83° SSE 22:17:55 10° ENE visible
05 Jun -3.2 23:47:53 10° W 23:51:08 74° N 23:54:24 10° E visible
06 Jun -3.3 01:24:20 10° W 01:27:31 51° SSW 01:27:51 48° S visible
06 Jun -3.1 22:54:30 10° W 22:57:45 72° N 23:01:01 10° E visible
